| time (UTC) | temp C | wind direction | speed KPH | gust KPH | rain 1hr cm | rain 24hr cm | rain mn cm | humidity % | barometer mb |
| 20260502112339 | 9 | 315 | 0.0 | 0.0 | 0.00 | 2.41 | 0.00 | 85 | 1023.5 |
| 20260502111337 | 9 | 325 | 0.0 | 0.0 | 0.00 | 2.44 | 0.00 | 85 | 1023.4 |
| 20260502110435 | 9 | 337 | 0.0 | 0.0 | 0.00 | 2.49 | 0.00 | 85 | 1023.4 |
| 20260502105437 | 9 | 335 | 0.0 | 3.2 | 0.00 | 2.51 | 0.00 | 85 | 1023.4 |
| 20260502104439 | 10 | 324 | 0.0 | 1.6 | 0.00 | 2.62 | 0.00 | 85 | 1023.4 |
| 20260502103436 | 10 | 314 | 0.0 | 0.0 | 0.00 | 2.74 | 0.00 | 85 | 1023.0 |
| 20260502101537 | 10 | 285 | 0.0 | 0.0 | 0.00 | 2.90 | 0.00 | 85 | 1022.6 |
| 20260502090736 | 10 | 339 | 0.0 | 3.2 | 0.00 | 3.17 | 0.00 | 85 | 1021.8 |
| 20260502070938 | 10 | 343 | 0.0 | 4.8 | 0.00 | 3.78 | 0.00 | 85 | 1021.6 |
| 20260502064935 | 10 | 337 | 0.0 | 3.2 | 0.00 | 3.78 | 0.00 | 86 | 1021.3 |
| 20260502063937 | 10 | 343 | 0.0 | 6.4 | 0.00 | 3.78 | 0.00 | 86 | 1021.4 |
| 20260502061937 | 10 | 322 | 0.0 | 0.0 | 0.00 | 3.78 | 0.00 | 86 | 1021.7 |
| 20260502060937 | 10 | 334 | 1.6 | 6.4 | 0.00 | 3.78 | 0.00 | 86 | 1021.8 |
| 20260502054951 | 10 | 294 | 0.0 | 0.0 | 0.00 | 3.78 | 0.00 | 86 | 1021.9 |
| 20260502053936 | 10 | 320 | 0.0 | 3.2 | 0.00 | 3.78 | 0.00 | 86 | 1021.8 |
| 20260502052937 | 10 | 318 | 0.0 | 0.0 | 0.00 | 3.81 | 0.00 | 86 | 1021.7 |
| 20260502051936 | 10 | 322 | 0.0 | 0.0 | 0.00 | 3.81 | 0.00 | 85 | 1021.5 |
| 20260502050937 | 11 | 320 | 0.0 | 0.0 | 0.00 | 3.81 | 0.00 | 85 | 1021.4 |
| 20260502044117 | 11 | 341 | 0.0 | 0.0 | 0.00 | 3.81 | 3.81 | 85 | 1021.5 |
| 20260502043118 | 11 | 337 | 0.0 | 0.0 | 0.00 | 3.81 | 3.81 | 85 | 1021.6 |
| 20260502042118 | 11 | 327 | 0.0 | 3.2 | 0.00 | 3.81 | 3.81 | 85 | 1021.8 |
| 20260502040219 | 11 | 331 | 0.0 | 4.8 | 0.00 | 3.81 | 3.81 | 85 | 1021.5 |
| 20260502035219 | 11 | 338 | 0.0 | 3.2 | 0.00 | 3.81 | 3.81 | 85 | 1021.3 |
| 20260502034219 | 11 | 352 | 1.6 | 4.8 | 0.00 | 3.81 | 3.81 | 84 | 1021.5 |
| 20260502032318 | 11 | 337 | 3.2 | 8.0 | 0.00 | 3.81 | 3.81 | 84 | 1021.5 |
| 20260502031334 | 11 | 327 | 0.0 | 3.2 | 0.00 | 3.81 | 3.81 | 84 | 1021.4 |
| 20260502030416 | 11 | 333 | 3.2 | 11.3 | 0.00 | 3.81 | 3.81 | 85 | 1021.2 |
| 20260502025419 | 11 | 2 | 0.0 | 3.2 | 0.00 | 3.81 | 3.81 | 85 | 1021.1 |
| 20260502023418 | 11 | 347 | 3.2 | 8.0 | 0.00 | 3.81 | 3.81 | 86 | 1020.6 |
| 20260502021420 | 11 | 19 | 0.0 | 1.6 | 0.00 | 3.84 | 3.81 | 87 | 1020.3 |
| 20260502015419 | 11 | 2 | 0.0 | 6.4 | 0.00 | 3.84 | 3.81 | 87 | 1020.2 |
| 20260502014517 | 11 | 338 | 1.6 | 3.2 | 0.00 | 3.84 | 3.81 | 87 | 1020.1 |
| 20260502013533 | 11 | 331 | 1.6 | 4.8 | 0.00 | 3.84 | 3.81 | 88 | 1019.8 |
| 20260502012617 | 11 | 12 | 3.2 | 9.7 | 0.00 | 3.84 | 3.81 | 88 | 1019.6 |
| 20260502011617 | 11 | 350 | 0.0 | 0.0 | 0.00 | 3.84 | 3.81 | 88 | 1019.6 |
| 20260502010618 | 11 | 351 | 1.6 | 6.4 | 0.03 | 3.84 | 3.81 | 88 | 1019.6 |
| 20260502004632 | 11 | 357 | 4.8 | 12.9 | 0.03 | 3.84 | 3.81 | 88 | 1019.2 |
| 20260502003719 | 11 | 52 | 3.2 | 9.7 | 0.03 | 3.84 | 3.81 | 88 | 1019.1 |
| 20260502002817 | 11 | 332 | 3.2 | 9.7 | 0.03 | 3.84 | 3.81 | 88 | 1018.7 |
| 20260502000917 | 12 | 3 | 0.0 | 3.2 | 0.00 | 3.81 | 3.78 | 88 | 1018.0 |
| 20260501235917 | 12 | 6 | 0.0 | 8.0 | 0.03 | 3.81 | 3.78 | 88 | 1017.8 |
| 20260501234935 | 12 | 347 | 4.8 | 12.9 | 0.03 | 3.81 | 3.78 | 88 | 1017.8 |
| 20260501233919 | 12 | 21 | 1.6 | 6.4 | 0.03 | 3.81 | 3.78 | 88 | 1017.3 |
| 20260501233016 | 12 | 17 | 4.8 | 12.9 | 0.03 | 3.81 | 3.78 | 88 | 1017.6 |
| 20260501231936 | 12 | 349 | 4.8 | 16.1 | 0.03 | 3.81 | 3.78 | 88 | 1018.0 |
| 20260501231019 | 12 | 351 | 3.2 | 11.3 | 0.03 | 3.81 | 3.78 | 88 | 1017.7 |
| 20260501230116 | 12 | 338 | 4.8 | 14.5 | 0.08 | 3.81 | 3.76 | 89 | 1017.3 |
| 20260501225117 | 13 | 345 | 3.2 | 11.3 | 0.08 | 3.78 | 3.76 | 89 | 1017.2 |
| 20260501224117 | 13 | 346 | 6.4 | 16.1 | 0.10 | 3.78 | 3.76 | 89 | 1017.1 |
| 20260501222216 | 13 | 332 | 3.2 | 9.7 | 0.25 | 3.78 | 3.76 | 89 | 1017.2 |
| 20260501221233 | 13 | 349 | 1.6 | 6.4 | 0.30 | 3.78 | 3.76 | 89 | 1017.0 |
| 20260501220318 | 13 | 348 | 8.0 | 17.7 | 0.30 | 3.76 | 3.71 | 89 | 1016.3 |
| 20260501215318 | 13 | 2 | 4.8 | 16.1 | 0.25 | 3.71 | 3.68 | 89 | 1016.9 |
| 20260501214319 | 13 | 334 | 3.2 | 9.7 | 0.23 | 3.68 | 3.66 | 89 | 1017.1 |
| 20260501213317 | 13 | 338 | 1.6 | 6.4 | 0.18 | 3.63 | 3.61 | 89 | 1016.7 |
| 20260501212318 | 13 | 345 | 14.5 | 27.4 | 0.08 | 3.53 | 3.51 | 89 | 1016.0 |
| 20260501210418 | 13 | 347 | 3.2 | 8.0 | 0.00 | 3.45 | 3.43 | 89 | 1016.5 |
| 20260501204417 | 13 | 346 | 6.4 | 19.3 | 0.05 | 3.45 | 3.43 | 89 | 1015.6 |
| 20260501203416 | 13 | 339 | 4.8 | 14.5 | 0.05 | 3.45 | 3.43 | 89 | 1015.6 |
| 20260501202419 | 13 | 9 | 0.0 | 4.8 | 0.10 | 3.45 | 3.43 | 89 | 1014.8 |
| 20260501201432 | 14 | 338 | 1.6 | 6.4 | 0.18 | 3.45 | 3.43 | 89 | 1015.5 |
| 20260501200417 | 15 | 336 | 3.2 | 9.7 | 0.30 | 3.45 | 3.43 | 89 | 1014.7 |
| 20260501195420 | 14 | 30 | 1.6 | 8.0 | 0.28 | 3.43 | 3.40 | 88 | 1014.0 |
| 20260501194517 | 14 | 44 | 0.0 | 3.2 | 0.25 | 3.40 | 3.38 | 88 | 1015.1 |
| 20260501193616 | 14 | 335 | 1.6 | 6.4 | 0.25 | 3.40 | 3.38 | 89 | 1015.5 |
| 20260501192616 | 13 | 13 | 3.2 | 9.7 | 0.20 | 3.35 | 3.33 | 88 | 1015.8 |
| 20260501191617 | 14 | 342 | 0.0 | 3.2 | 0.20 | 3.30 | 3.28 | 88 | 1016.1 |
| 20260501190636 | 14 | 1 | 0.0 | 3.2 | 0.13 | 3.17 | 3.15 | 88 | 1016.5 |
| 20260501185732 | 14 | 307 | 0.0 | 4.8 | 0.25 | 3.15 | 3.12 | 88 | 1016.3 |
| 20260501184816 | 14 | 23 | 0.0 | 6.4 | 0.43 | 3.56 | 3.12 | 89 | 1015.1 |
| 20260501182820 | 14 | 344 | 8.0 | 20.9 | 0.58 | 3.61 | 3.12 | 89 | 1015.4 |
| 20260501181818 | 14 | 6 | 1.6 | 11.3 | 0.53 | 3.56 | 3.07 | 89 | 1015.6 |
| 20260501180817 | 14 | 319 | 1.6 | 6.4 | 0.51 | 3.51 | 3.02 | 89 | 1017.4 |
| 20260501173918 | 14 | 337 | 0.0 | 3.2 | 0.08 | 3.07 | 2.59 | 88 | 1016.7 |
| 20260501171917 | 14 | 46 | 0.0 | 1.6 | 0.03 | 3.02 | 2.54 | 88 | 1015.9 |
| 20260501171017 | 14 | 30 | 0.0 | 1.6 | 0.00 | 3.00 | 2.51 | 88 | 1016.1 |
| 20260501170018 | 14 | 16 | 1.6 | 4.8 | 0.00 | 3.00 | 2.51 | 88 | 1016.0 |
| 20260501165016 | 15 | 346 | 4.8 | 12.9 | 0.00 | 3.00 | 2.51 | 88 | 1015.8 |
| 20260501164022 | 15 | 61 | 0.0 | 1.6 | 0.00 | 3.00 | 2.51 | 88 | 1015.4 |
| 20260501163017 | 15 | 299 | 0.0 | 0.0 | 0.05 | 3.00 | 2.51 | 88 | 1015.8 |
| 20260501162018 | 15 | 52 | 0.0 | 1.6 | 0.10 | 3.00 | 2.51 | 88 | 1016.0 |
| 20260501160116 | 14 | 61 | 3.2 | 11.3 | 0.10 | 3.00 | 2.51 | 88 | 1015.1 |
| 20260501154216 | 14 | 182 | 0.0 | 0.0 | 0.13 | 3.00 | 2.51 | 88 | 1014.0 |
| 20260501153216 | 14 | 114 | 0.0 | 1.6 | 0.08 | 2.92 | 2.46 | 88 | 1015.6 |
| 20260501152218 | 14 | 25 | 0.0 | 1.6 | 0.05 | 2.92 | 2.44 | 88 | 1017.1 |
| 20260501151317 | 14 | 318 | 0.0 | 3.2 | 0.05 | 2.90 | 2.41 | 88 | 1017.1 |
| 20260501150318 | 15 | 84 | 0.0 | 1.6 | 0.10 | 2.90 | 2.41 | 88 | 1017.1 |
| 20260501144417 | 15 | 42 | 0.0 | 0.0 | 0.23 | 2.87 | 2.39 | 88 | 1017.2 |
| 20260501141616 | 14 | 335 | 0.0 | 3.2 | 0.36 | 2.87 | 2.39 | 88 | 1016.9 |
| 20260501140618 | 14 | 164 | 0.0 | 3.2 | 0.30 | 2.82 | 2.34 | 88 | 1014.2 |
| 20260501134617 | 15 | 202 | 0.0 | 0.0 | 0.15 | 2.67 | 2.16 | 88 | 1019.6 |
| 20260501133619 | 15 | 337 | 0.0 | 0.0 | 0.10 | 2.62 | 2.11 | 88 | 1018.7 |
| 20260501132618 | 15 | 345 | 3.2 | 8.0 | 0.13 | 2.59 | 2.08 | 88 | 1018.3 |
| 20260501131717 | 15 | 315 | 0.0 | 8.0 | 0.23 | 2.54 | 2.03 | 89 | 1017.7 |
| 20260501130716 | 14 | 339 | 4.8 | 11.3 | 0.28 | 2.54 | 2.03 | 88 | 1017.7 |
| 20260501125717 | 15 | 8 | 1.6 | 6.4 | 0.28 | 2.51 | 2.01 | 88 | 1017.2 |
| 20260501124717 | 15 | 26 | 1.6 | 6.4 | 0.38 | 2.51 | 2.01 | 88 | 1016.8 |
| 20260501123719 | 15 | 63 | 0.0 | 6.4 | 0.48 | 2.51 | 2.01 | 88 | 1016.3 |
| 20260501122733 | 15 | 93 | 0.0 | 0.0 | 0.56 | 2.49 | 1.96 | 88 | 1016.1 |
| 20260501121817 | 15 | 28 | 0.0 | 3.2 | 0.46 | 2.34 | 1.80 | 88 | 1014.9 |
| 20260501120817 | 15 | 101 | 0.0 | 4.8 | 0.43 | 2.26 | 1.75 | 88 | 1016.6 |
| 20260501115916 | 15 | 338 | 0.0 | 3.2 | 0.41 | 2.24 | 1.73 | 88 | 1016.6 |
| 20260501114918 | 15 | 67 | 1.6 | 8.0 | 0.41 | 2.16 | 1.63 | 88 | 1014.4 |
| 20260501114017 | 15 | 90 | 0.0 | 0.0 | 0.41 | 2.06 | 1.55 | 88 | 1016.4 |